Home   Weather   Stellenbosch   Past weeks
Flag for South Africa

Past Weather in Stellenbosch, South Africa — Yesterday and Last 2 Weeks

Now
72 °F

Sunny.


Feels Like: 77 °F
Forecast: 77 / 59 °F
Wind: 3 mph from South

Location: Cape Town International Airport

Current Time: May 25, 2019 at 6:10:28 pm

Latest Report: May 25, 2019 at 5:00 pm


Visibility: 10 mi

Pressure: 29.98 "Hg

Humidity: 53%

Dew Point: 54 °F

Location of StellenboschLocation

Past Weather in Stellenbosch — Graph

°F

Stellenbosch Temperature Yesterday

Maximum temperature yesterday: 72 °F (at 1:00 pm)
Minimum temperature yesterday: 46 °F (at 8:00 am)
Average temperature yesterday: 60 °F

High & Low Weather Summary for the Past Weeks

 TemperatureHumidityPressure
High82 °F (May 25, 3:00 pm)100% (May 12, 2:00 am)30.27 "Hg (May 12, 2:00 am)
Low46 °F (May 24, 8:00 am)30% (May 17, 1:00 pm)29.83 "Hg (May 14, 6:00 am)
Average60 °F79%30.04 "Hg
* Reported May 10 5:00 pm — May 25 5:00 pm, Stellenbosch. Weather by CustomWeather, © 2019

Note: Actual official high and low records may vary slightly from our data, if they occured in-between our weather recording intervals... More about our weather records

Advertising

Stellenbosch Weather History for the Previous 24 Hours

Scroll right to see more
 ConditionsComfort  
Time TempWeatherWind HumidityBarometerVisibility
5:00 pm
Sat, May 25
72 °FSunny.3 mph53%29.98 "Hg10 mi
4:00 pm79 °FPassing clouds.5 mph42%29.98 "HgN/A
3:00 pm82 °FSunny.3 mph37%29.98 "Hg10 mi
2:00 pm79 °FSunny.2 mph39%30.01 "Hg10 mi
1:00 pm77 °FSunny.3 mph42%30.04 "Hg10 mi
11:30 am70 °FSunny.2 mph60%30.07 "Hg10 mi
11:03 am66 °FSunny.2 mph68%30.07 "Hg10 mi
10:00 am61 °FSunny.3 mph83%30.07 "Hg10 mi
9:20 am61 °FSunny.3 mph77%30.07 "Hg10 mi
9:00 am55 °FSunny.3 mph94%30.07 "Hg10 mi
8:00 am48 °FSunny.2 mph100%30.07 "Hg10 mi
7:00 am48 °FClear.2 mph100%30.07 "Hg10 mi
6:00 am48 °FClear.3 mph94%30.07 "Hg10 mi
5:00 am48 °FClear.3 mph94%30.07 "Hg10 mi
4:00 am48 °FClear.5 mph100%30.09 "Hg10 mi
3:00 am50 °FFog.1 mph94%30.09 "Hg0 mi
2:00 am50 °FClear.1 mph100%30.09 "Hg10 mi
1:00 am55 °FClear.1 mph94%30.09 "Hg10 mi
12:00 am57 °FClear.5 mph94%30.12 "Hg10 mi
11:00 pm
Fri, May 24
57 °FClear.7 mph94%30.12 "Hg10 mi
10:00 pm59 °FClear.8 mph88%30.12 "Hg10 mi
9:00 pm59 °FClear.12 mph88%30.12 "Hg10 mi
8:00 pm59 °FClear.10 mph94%30.15 "Hg10 mi
7:00 pm61 °FClear.9 mph88%30.15 "Hg10 mi
6:00 pm61 °FClear.10 mph88%30.12 "Hg10 mi
Weather by CustomWeather, © 2019

See weather overview